| time (UTC) | temp F | wind direction | speed MPH | gust MPH | rain 1hr in | rain 24hr in | rain mn in | humidity % | barometer mb |
| 20260510154002 | 56 | 264 | 1.0 | 8.0 | 0.00 | 0.49 | 0.00 | 64 | 1017.2 |
| 20260510153502 | 56 | 150 | 1.0 | 6.0 | 0.00 | 0.49 | 0.00 | 64 | 1017.2 |
| 20260510153009 | 56 | 211 | 1.0 | 10.0 | 0.00 | 0.49 | 0.00 | 61 | 1017.2 |
| 20260510152503 | 56 | 119 | 2.0 | 10.0 | 0.00 | 0.49 | 0.00 | 65 | 1017.2 |
| 20260510152002 | 55 | 174 | 1.0 | 10.0 | 0.00 | 0.49 | 0.00 | 68 | 1017.0 |
| 20260510151504 | 55 | 188 | 5.0 | 10.0 | 0.00 | 0.49 | 0.00 | 61 | 1016.8 |
| 20260510151004 | 55 | 248 | 5.0 | 11.0 | 0.00 | 0.49 | 0.00 | 64 | 1016.5 |
| 20260510150503 | 54 | 238 | 5.0 | 11.0 | 0.00 | 0.49 | 0.00 | 64 | 1016.5 |
| 20260510150004 | 54 | 203 | 6.0 | 11.0 | 0.00 | 0.49 | 0.00 | 66 | 1016.5 |
| 20260510145504 | 54 | 225 | 5.0 | 12.0 | 0.00 | 0.49 | 0.00 | 69 | 1016.6 |
| 20260510145005 | 53 | 207 | 6.0 | 12.0 | 0.00 | 0.49 | 0.00 | 69 | 1016.5 |
| 20260510144508 | 53 | 149 | 5.0 | 9.0 | 0.00 | 0.49 | 0.00 | 73 | 1016.4 |
| 20260510144004 | 54 | 161 | 4.0 | 9.0 | 0.00 | 0.49 | 0.00 | 78 | 1016.3 |
| 20260510143502 | 53 | 198 | 3.0 | 9.0 | 0.00 | 0.49 | 0.00 | 75 | 1016.3 |
| 20260510143005 | 53 | 191 | 2.0 | 9.0 | 0.00 | 0.49 | 0.00 | 78 | 1016.3 |
| 20260510142505 | 53 | 185 | 2.0 | 9.0 | 0.00 | 0.49 | 0.00 | 79 | 1016.4 |
| 20260510142002 | 52 | 212 | 4.0 | 7.0 | 0.00 | 0.49 | 0.00 | 78 | 1016.4 |
| 20260510141504 | 52 | 192 | 3.0 | 9.0 | 0.00 | 0.49 | 0.00 | 80 | 1016.3 |
| 20260510141004 | 51 | 207 | 3.0 | 10.0 | 0.00 | 0.49 | 0.00 | 79 | 1016.2 |
| 20260510140503 | 51 | 223 | 4.0 | 10.0 | 0.00 | 0.49 | 0.00 | 76 | 1016.3 |
| 20260510140010 | 51 | 221 | 5.0 | 10.0 | 0.00 | 0.49 | 0.00 | 77 | 1016.2 |
| 20260510135504 | 51 | 187 | 5.0 | 10.0 | 0.00 | 0.49 | 0.00 | 77 | 1016.1 |
| 20260510135003 | 50 | 175 | 4.0 | 10.0 | 0.00 | 0.49 | 0.00 | 79 | 1016.0 |
| 20260510134504 | 50 | 206 | 3.0 | 7.0 | 0.00 | 0.49 | 0.00 | 82 | 1016.1 |
| 20260510134003 | 50 | 201 | 3.0 | 8.0 | 0.00 | 0.49 | 0.00 | 82 | 1016.0 |
| 20260510133503 | 49 | 202 | 4.0 | 8.0 | 0.00 | 0.49 | 0.00 | 83 | 1016.0 |
| 20260510133008 | 49 | 204 | 1.0 | 6.0 | 0.00 | 0.49 | 0.00 | 86 | 1016.1 |
| 20260510132506 | 49 | 213 | 2.0 | 6.0 | 0.00 | 0.49 | 0.00 | 86 | 1016.0 |
| 20260510132006 | 48 | 208 | 2.0 | 6.0 | 0.00 | 0.49 | 0.00 | 87 | 1015.9 |
| 20260510131508 | 48 | 214 | 3.0 | 8.0 | 0.00 | 0.49 | 0.00 | 86 | 1015.7 |
| 20260510131004 | 48 | 205 | 3.0 | 8.0 | 0.00 | 0.49 | 0.00 | 86 | 1015.6 |
| 20260510130504 | 48 | 197 | 3.0 | 7.0 | 0.00 | 0.49 | 0.00 | 86 | 1015.5 |
| 20260510130016 | 48 | 217 | 3.0 | 7.0 | 0.00 | 0.49 | 0.00 | 87 | 1015.3 |
| 20260510125503 | 48 | 214 | 4.0 | 6.0 | 0.00 | 0.49 | 0.00 | 87 | 1015.2 |
| 20260510125005 | 48 | 193 | 2.0 | 6.0 | 0.00 | 0.49 | 0.00 | 89 | 1015.1 |
| 20260510124508 | 47 | 200 | 2.0 | 6.0 | 0.00 | 0.49 | 0.00 | 88 | 1015.1 |
| 20260510124005 | 47 | 211 | 1.0 | 6.0 | 0.00 | 0.49 | 0.00 | 88 | 1015.0 |
| 20260510123504 | 47 | 240 | 3.0 | 6.0 | 0.00 | 0.49 | 0.00 | 89 | 1015.0 |
| 20260510123007 | 47 | 213 | 3.0 | 6.0 | 0.00 | 0.49 | 0.00 | 89 | 1015.1 |
| 20260510122505 | 47 | 208 | 0.0 | 4.0 | 0.00 | 0.49 | 0.00 | 89 | 1015.0 |
| 20260510122009 | 47 | 206 | 2.0 | 5.0 | 0.00 | 0.49 | 0.00 | 89 | 1014.8 |
| 20260510121508 | 47 | 197 | 2.0 | 5.0 | 0.00 | 0.49 | 0.00 | 90 | 1014.7 |
| 20260510121005 | 47 | 183 | 0.0 | 2.0 | 0.00 | 0.49 | 0.00 | 91 | 1014.6 |
| 20260510120505 | 47 | 225 | 0.0 | 3.0 | 0.00 | 0.49 | 0.00 | 91 | 1014.5 |
| 20260510120014 | 47 | 185 | 0.0 | 3.0 | 0.00 | 0.49 | 0.00 | 90 | 1014.4 |
| 20260510115502 | 47 | 218 | 1.0 | 5.0 | 0.00 | 0.49 | 0.00 | 90 | 1014.2 |
| 20260510115002 | 47 | 188 | 2.0 | 5.0 | 0.00 | 0.49 | 0.00 | 90 | 1014.1 |
| 20260510114513 | 47 | 229 | 2.0 | 5.0 | 0.00 | 0.49 | 0.00 | 90 | 1013.9 |
| 20260510114003 | 47 | 236 | 1.0 | 7.0 | 0.00 | 0.49 | 0.00 | 90 | 1013.8 |
| 20260510113502 | 47 | 192 | 3.0 | 7.0 | 0.00 | 0.49 | 0.00 | 90 | 1013.7 |
| 20260510113013 | 47 | 199 | 2.0 | 7.0 | 0.00 | 0.49 | 0.00 | 91 | 1013.6 |
| 20260510112504 | 47 | 209 | 2.0 | 9.0 | 0.00 | 0.49 | 0.00 | 91 | 1013.6 |
| 20260510112005 | 47 | 212 | 5.0 | 9.0 | 0.00 | 0.49 | 0.00 | 92 | 1013.3 |
| 20260510111515 | 47 | 199 | 3.0 | 7.0 | 0.00 | 0.49 | 0.00 | 93 | 1013.1 |
| 20260510111006 | 47 | 216 | 2.0 | 7.0 | 0.00 | 0.49 | 0.00 | 93 | 1013.1 |
| 20260510110510 | 47 | 198 | 2.0 | 7.0 | 0.00 | 0.49 | 0.00 | 93 | 1012.7 |
| 20260510110024 | 47 | 201 | 3.0 | 7.0 | 0.00 | 0.49 | 0.00 | 93 | 1012.7 |
| 20260510105507 | 47 | 210 | 2.0 | 6.0 | 0.00 | 0.49 | 0.00 | 94 | 1012.8 |
| 20260510105008 | 47 | 221 | 3.0 | 6.0 | 0.00 | 0.49 | 0.00 | 94 | 1012.7 |
| 20260510104506 | 47 | 209 | 2.0 | 6.0 | 0.00 | 0.49 | 0.00 | 94 | 1012.5 |
| 20260510104006 | 47 | 195 | 2.0 | 5.0 | 0.00 | 0.49 | 0.00 | 95 | 1012.4 |
| 20260510103502 | 47 | 191 | 2.0 | 5.0 | 0.00 | 0.49 | 0.00 | 95 | 1012.3 |
| 20260510103008 | 47 | 177 | 1.0 | 6.0 | 0.00 | 0.49 | 0.00 | 95 | 1012.2 |
| 20260510102505 | 47 | 205 | 2.0 | 6.0 | 0.00 | 0.49 | 0.00 | 95 | 1012.0 |
| 20260510102007 | 47 | 194 | 2.0 | 6.0 | 0.00 | 0.49 | 0.00 | 95 | 1012.0 |
| 20260510101523 | 47 | 200 | 1.0 | 6.0 | 0.00 | 0.49 | 0.00 | 95 | 1012.1 |
| 20260510101001 | 47 | 194 | 1.0 | 3.0 | 0.00 | 0.49 | 0.00 | 94 | 1012.0 |
| 20260510100503 | 47 | 194 | 1.0 | 3.0 | 0.00 | 0.49 | 0.00 | 94 | 1012.0 |
| 20260510100023 | 48 | 194 | 1.0 | 3.0 | 0.00 | 0.49 | 0.00 | 94 | 1012.0 |
| 20260510095511 | 48 | 197 | 0.0 | 4.0 | 0.00 | 0.49 | 0.00 | 94 | 1011.9 |
| 20260510095002 | 48 | 200 | 2.0 | 4.0 | 0.00 | 0.49 | 0.00 | 94 | 1011.8 |
| 20260510094518 | 48 | 209 | 1.0 | 3.0 | 0.00 | 0.49 | 0.00 | 94 | 1011.8 |
| 20260510094008 | 49 | 209 | 0.0 | 5.0 | 0.00 | 0.49 | 0.00 | 94 | 1011.8 |
| 20260510093511 | 49 | 211 | 1.0 | 5.0 | 0.00 | 0.49 | 0.00 | 94 | 1011.6 |
| 20260510093014 | 49 | 196 | 2.0 | 5.0 | 0.00 | 0.50 | 0.00 | 94 | 1011.5 |
| 20260510092507 | 49 | 205 | 2.0 | 5.0 | 0.00 | 0.50 | 0.00 | 95 | 1011.3 |
| 20260510092012 | 49 | 205 | 2.0 | 5.0 | 0.00 | 0.50 | 0.00 | 95 | 1011.1 |
| 20260510091511 | 49 | 219 | 2.0 | 6.0 | 0.00 | 0.50 | 0.00 | 95 | 1011.2 |
| 20260510091006 | 50 | 221 | 2.0 | 9.0 | 0.00 | 0.50 | 0.00 | 95 | 1011.1 |
| 20260510090504 | 50 | 206 | 1.0 | 9.0 | 0.00 | 0.51 | 0.00 | 95 | 1011.1 |
| 20260510090020 | 50 | 194 | 4.0 | 8.0 | 0.00 | 0.51 | 0.00 | 95 | 1011.0 |
| 20260510085505 | 50 | 216 | 4.0 | 8.0 | 0.00 | 0.52 | 0.00 | 96 | 1011.0 |
| 20260510085007 | 50 | 223 | 3.0 | 8.0 | 0.00 | 0.52 | 0.00 | 96 | 1010.9 |
| 20260510084519 | 51 | 170 | 2.0 | 9.0 | 0.00 | 0.52 | 0.00 | 96 | 1010.8 |
| 20260510084010 | 51 | 172 | 4.0 | 9.0 | 0.00 | 0.52 | 0.00 | 96 | 1010.6 |
| 20260510083508 | 51 | 182 | 3.0 | 9.0 | 0.00 | 0.54 | 0.00 | 96 | 1010.4 |
| 20260510083024 | 51 | 194 | 2.0 | 8.0 | 0.00 | 0.54 | 0.00 | 96 | 1010.6 |
| 20260510082508 | 51 | 188 | 2.0 | 8.0 | 0.00 | 0.55 | 0.00 | 96 | 1010.5 |
| 20260510082006 | 51 | 185 | 2.0 | 6.0 | 0.00 | 0.56 | 0.00 | 96 | 1010.5 |
| 20260510081518 | 51 | 152 | 2.0 | 7.0 | 0.00 | 0.56 | 0.00 | 96 | 1010.5 |
| 20260510081003 | 51 | 165 | 2.0 | 7.0 | 0.00 | 0.57 | 0.00 | 96 | 1010.4 |
| 20260510080503 | 51 | 178 | 1.0 | 6.0 | 0.00 | 0.57 | 0.00 | 96 | 1010.2 |
| 20260510080011 | 51 | 161 | 2.0 | 6.0 | 0.00 | 0.58 | 0.00 | 96 | 1010.1 |
| 20260510075503 | 51 | 180 | 1.0 | 4.0 | 0.00 | 0.58 | 0.00 | 97 | 1010.1 |
| 20260510075004 | 51 | 178 | 0.0 | 2.0 | 0.00 | 0.58 | 0.00 | 96 | 1010.0 |
| 20260510074514 | 51 | 178 | 0.0 | 3.0 | 0.00 | 0.60 | 0.00 | 96 | 1009.9 |
| 20260510074005 | 51 | 178 | 1.0 | 3.0 | 0.00 | 0.60 | 0.00 | 96 | 1009.9 |
| 20260510073502 | 51 | 129 | 0.0 | 4.0 | 0.00 | 0.61 | 0.00 | 96 | 1009.7 |
| 20260510073004 | 51 | 118 | 1.0 | 4.0 | 0.00 | 0.62 | 0.00 | 96 | 1009.7 |
| 20260510072503 | 51 | 113 | 1.0 | 3.0 | 0.00 | 0.62 | 0.00 | 96 | 1009.8 |
| 20260510072005 | 51 | 113 | 1.0 | 4.0 | 0.00 | 0.63 | 0.00 | 96 | 1009.7 |
| 20260510071503 | 51 | 115 | 2.0 | 4.0 | 0.00 | 0.63 | 0.00 | 96 | 1009.6 |
| 20260510071002 | 51 | 153 | 2.0 | 4.0 | 0.00 | 0.63 | 0.00 | 95 | 1009.6 |
| 20260510070503 | 51 | 92 | 1.0 | 4.0 | 0.00 | 0.65 | 0.00 | 95 | 1009.6 |
| 20260510070003 | 51 | 151 | 0.0 | 3.0 | 0.00 | 0.65 | 0.00 | 95 | 1009.5 |
| 20260510065504 | 51 | 116 | 0.0 | 2.0 | 0.00 | 0.66 | 0.00 | 95 | 1009.5 |
| 20260510065006 | 51 | 116 | 1.0 | 3.0 | 0.00 | 0.67 | 0.00 | 95 | 1009.6 |
| 20260510064527 | 51 | 116 | 1.0 | 3.0 | 0.00 | 0.68 | 0.00 | 95 | 1009.6 |
| 20260510064003 | 52 | 83 | 0.0 | 2.0 | 0.00 | 0.70 | 0.00 | 95 | 1009.6 |
| 20260510063504 | 52 | 63 | 1.0 | 3.0 | 0.00 | 0.70 | 0.00 | 95 | 1009.5 |
| 20260510063020 | 52 | 90 | 1.0 | 5.0 | 0.00 | 0.71 | 0.00 | 95 | 1009.4 |
| 20260510062502 | 52 | 69 | 1.0 | 7.0 | 0.00 | 0.73 | 0.00 | 95 | 1009.3 |
| 20260510062003 | 52 | 93 | 1.0 | 7.0 | 0.00 | 0.76 | 0.00 | 95 | 1009.2 |
| 20260510061514 | 52 | 87 | 1.0 | 5.0 | 0.00 | 0.77 | 0.00 | 95 | 1009.1 |
| 20260510061003 | 52 | 98 | 2.0 | 9.0 | 0.00 | 0.79 | 0.00 | 96 | 1009.1 |
| 20260510060522 | 52 | 61 | 4.0 | 9.0 | 0.00 | 0.81 | 0.00 | 95 | 1009.1 |
| 20260510060010 | 52 | 284 | 1.0 | 4.0 | 0.00 | 0.81 | 0.00 | 96 | 1009.0 |
| 20260510055503 | 52 | 292 | 0.0 | 3.0 | 0.00 | 0.82 | 0.00 | 96 | 1008.9 |
| 20260510055003 | 53 | 341 | 0.0 | 3.0 | 0.00 | 0.83 | 0.00 | 95 | 1008.9 |
| 20260510054508 | 53 | 331 | 0.0 | 3.0 | 0.00 | 0.84 | 0.00 | 95 | 1008.9 |
| 20260510054003 | 53 | 338 | 1.0 | 4.0 | 0.00 | 0.85 | 0.00 | 95 | 1009.0 |
| 20260510053503 | 53 | 26 | 2.0 | 7.0 | 0.00 | 0.86 | 0.00 | 95 | 1009.0 |
| 20260510053017 | 53 | 17 | 2.0 | 11.0 | 0.00 | 0.87 | 0.00 | 96 | 1009.1 |
| 20260510052504 | 53 | 42 | 5.0 | 17.0 | 0.00 | 0.87 | 0.00 | 96 | 1009.1 |
| 20260510052008 | 53 | 53 | 7.0 | 17.0 | 0.00 | 0.87 | 0.00 | 96 | 1009.3 |
| 20260510051522 | 53 | 27 | 3.0 | 10.0 | 0.00 | 0.87 | 0.00 | 96 | 1009.3 |
| 20260510051003 | 53 | 28 | 4.0 | 9.0 | 0.00 | 0.87 | 0.00 | 96 | 1009.3 |
| 20260510050504 | 53 | 28 | 3.0 | 5.0 | 0.00 | 0.87 | 0.00 | 96 | 1009.2 |
| 20260510050004 | 53 | 348 | 2.0 | 4.0 | 0.00 | 0.87 | 0.00 | 95 | 1009.0 |
| 20260510045504 | 53 | 276 | 2.0 | 4.0 | 0.00 | 0.87 | 0.00 | 95 | 1008.9 |
| 20260510045007 | 53 | 282 | 1.0 | 4.0 | 0.00 | 0.88 | 0.00 | 95 | 1008.9 |
| 20260510044515 | 53 | 308 | 1.0 | 3.0 | 0.00 | 0.88 | 0.00 | 96 | 1008.9 |
| 20260510044004 | 53 | 11 | 0.0 | 4.0 | 0.00 | 0.88 | 0.00 | 95 | 1008.9 |
| 20260510043504 | 53 | 360 | 1.0 | 4.0 | 0.00 | 0.88 | 0.00 | 95 | 1008.8 |
| 20260510043011 | 53 | 346 | 0.0 | 4.0 | 0.05 | 0.88 | 0.00 | 96 | 1008.9 |
| 20260510042504 | 53 | 350 | 1.0 | 4.0 | 0.11 | 0.88 | 0.00 | 95 | 1008.9 |
| 20260510042010 | 53 | 242 | 0.0 | 3.0 | 0.13 | 0.88 | 0.00 | 95 | 1009.1 |
| 20260510041515 | 53 | 242 | 1.0 | 3.0 | 0.13 | 0.89 | 0.00 | 95 | 1009.2 |
| 20260510041004 | 53 | 301 | 0.0 | 3.0 | 0.13 | 0.89 | 0.00 | 95 | 1009.0 |
| 20260510040507 | 53 | 334 | 1.0 | 3.0 | 0.14 | 0.89 | 0.00 | 95 | 1008.7 |
| 20260510040023 | 53 | 355 | 0.0 | 2.0 | 0.14 | 0.90 | 0.00 | 95 | 1008.7 |
| 20260510035504 | 54 | 355 | 0.0 | 3.0 | 0.14 | 0.90 | 0.90 | 95 | 1008.7 |
| 20260510035008 | 54 | 360 | 1.0 | 3.0 | 0.15 | 0.90 | 0.90 | 95 | 1008.7 |
| 20260510034513 | 54 | 32 | 2.0 | 4.0 | 0.23 | 0.90 | 0.90 | 95 | 1008.8 |
| 20260510034004 | 54 | 347 | 2.0 | 9.0 | 0.23 | 0.90 | 0.90 | 95 | 1008.6 |
| 20260510033508 | 54 | 56 | 5.0 | 9.0 | 0.23 | 0.90 | 0.90 | 95 | 1009.1 |
| 20260510033020 | 54 | 76 | 1.0 | 6.0 | 0.18 | 0.86 | 0.85 | 95 | 1008.9 |
| 20260510032503 | 54 | 117 | 1.0 | 6.0 | 0.12 | 0.80 | 0.79 | 95 | 1009.0 |
| 20260510032006 | 54 | 106 | 3.0 | 5.0 | 0.10 | 0.78 | 0.77 | 95 | 1008.5 |
| 20260510031516 | 54 | 68 | 3.0 | 6.0 | 0.10 | 0.78 | 0.77 | 95 | 1008.6 |
| 20260510031006 | 54 | 44 | 4.0 | 6.0 | 0.10 | 0.78 | 0.77 | 95 | 1008.7 |
| 20260510030513 | 54 | 40 | 2.0 | 11.0 | 0.09 | 0.77 | 0.76 | 95 | 1008.6 |
| 20260510030022 | 54 | 88 | 5.0 | 17.0 | 0.09 | 0.77 | 0.76 | 95 | 1008.9 |
| 20260510025508 | 54 | 27 | 8.0 | 17.0 | 0.09 | 0.78 | 0.76 | 95 | 1009.1 |
| 20260510025007 | 54 | 56 | 8.0 | 13.0 | 0.08 | 0.78 | 0.75 | 95 | 1009.4 |
| 20260510024513 | 54 | 118 | 6.0 | 9.0 | 0.00 | 0.70 | 0.67 | 95 | 1009.3 |
| 20260510024005 | 54 | 24 | 1.0 | 4.0 | 0.00 | 0.70 | 0.67 | 95 | 1008.2 |
| 20260510023508 | 54 | 30 | 1.0 | 5.0 | 0.00 | 0.70 | 0.67 | 95 | 1008.1 |
| 20260510023030 | 54 | 321 | 2.0 | 5.0 | 0.00 | 0.70 | 0.67 | 95 | 1007.9 |
| 20260510022504 | 54 | 18 | 2.0 | 5.0 | 0.00 | 0.70 | 0.67 | 95 | 1007.9 |
| 20260510022004 | 54 | 324 | 1.0 | 4.0 | 0.00 | 0.70 | 0.67 | 95 | 1007.9 |
| 20260510021519 | 54 | 5 | 0.0 | 4.0 | 0.00 | 0.71 | 0.67 | 95 | 1008.0 |
| 20260510021004 | 54 | 360 | 1.0 | 4.0 | 0.00 | 0.71 | 0.67 | 95 | 1007.9 |
| 20260510020507 | 54 | 360 | 2.0 | 5.0 | 0.00 | 0.71 | 0.67 | 94 | 1008.0 |
| 20260510020020 | 54 | 5 | 2.0 | 5.0 | 0.00 | 0.71 | 0.67 | 94 | 1008.1 |
| 20260510015507 | 54 | 5 | 2.0 | 5.0 | 0.00 | 0.71 | 0.67 | 94 | 1008.1 |
| 20260510015003 | 54 | 5 | 2.0 | 5.0 | 0.00 | 0.71 | 0.67 | 94 | 1008.1 |
| 20260510014519 | 54 | 5 | 1.0 | 4.0 | 0.01 | 0.71 | 0.67 | 94 | 1008.1 |
| 20260510014006 | 54 | 355 | 0.0 | 4.0 | 0.01 | 0.72 | 0.67 | 94 | 1008.0 |
| 20260510013508 | 54 | 337 | 1.0 | 5.0 | 0.02 | 0.72 | 0.67 | 94 | 1007.8 |
| 20260510013017 | 54 | 13 | 3.0 | 5.0 | 0.03 | 0.72 | 0.67 | 94 | 1007.8 |
| 20260510012508 | 54 | 28 | 2.0 | 5.0 | 0.05 | 0.72 | 0.67 | 94 | 1007.8 |
| 20260510012010 | 54 | 24 | 1.0 | 4.0 | 0.07 | 0.72 | 0.67 | 94 | 1007.7 |
| 20260510011528 | 54 | 27 | 1.0 | 5.0 | 0.12 | 0.72 | 0.67 | 94 | 1007.5 |
| 20260510011006 | 54 | 309 | 2.0 | 6.0 | 0.17 | 0.72 | 0.67 | 94 | 1007.3 |
| 20260510010504 | 54 | 311 | 2.0 | 6.0 | 0.20 | 0.72 | 0.67 | 93 | 1007.5 |
| 20260510010016 | 54 | 34 | 1.0 | 6.0 | 0.26 | 0.73 | 0.67 | 93 | 1007.8 |
| 20260510005504 | 54 | 47 | 3.0 | 6.0 | 0.26 | 0.73 | 0.67 | 93 | 1007.9 |
| 20260510005007 | 54 | 43 | 1.0 | 5.0 | 0.26 | 0.73 | 0.67 | 93 | 1007.8 |
| 20260510004522 | 54 | 59 | 2.0 | 6.0 | 0.25 | 0.72 | 0.66 | 92 | 1007.8 |
| 20260510004009 | 55 | 144 | 0.0 | 8.0 | 0.25 | 0.72 | 0.66 | 92 | 1007.7 |
| 20260510003508 | 55 | 131 | 2.0 | 8.0 | 0.24 | 0.72 | 0.65 | 91 | 1007.8 |
| 20260510003022 | 55 | 130 | 2.0 | 13.0 | 0.23 | 0.71 | 0.64 | 91 | 1007.8 |
| 20260510002510 | 55 | 115 | 4.0 | 15.0 | 0.21 | 0.69 | 0.62 | 90 | 1007.9 |
| 20260510002012 | 56 | 120 | 5.0 | 16.0 | 0.19 | 0.67 | 0.60 | 88 | 1008.1 |
| 20260510001519 | 56 | 123 | 4.0 | 16.0 | 0.14 | 0.62 | 0.55 | 86 | 1008.0 |
| 20260510001008 | 58 | 158 | 5.0 | 12.0 | 0.09 | 0.57 | 0.50 | 83 | 1007.4 |
| 20260510000511 | 60 | 159 | 4.0 | 14.0 | 0.06 | 0.54 | 0.47 | 78 | 1007.3 |
| 20260510000016 | 63 | 156 | 6.0 | 14.0 | 0.00 | 0.49 | 0.41 | 69 | 1007.1 |
| 20260509235506 | 65 | 167 | 2.0 | 17.0 | 0.00 | 0.49 | 0.41 | 67 | 1006.6 |
| 20260509235012 | 65 | 19 | 7.0 | 17.0 | 0.00 | 0.49 | 0.41 | 65 | 1005.8 |
| 20260509234529 | 66 | 48 | 9.0 | 17.0 | 0.00 | 0.49 | 0.41 | 62 | 1005.7 |
| 20260509234006 | 66 | 64 | 7.0 | 15.0 | 0.00 | 0.49 | 0.41 | 63 | 1005.5 |
| 20260509233506 | 66 | 60 | 8.0 | 19.0 | 0.00 | 0.49 | 0.41 | 62 | 1005.5 |
| 20260509233022 | 66 | 34 | 10.0 | 19.0 | 0.00 | 0.49 | 0.41 | 62 | 1005.4 |
| 20260509232508 | 66 | 71 | 6.0 | 19.0 | 0.00 | 0.49 | 0.41 | 62 | 1005.4 |
| 20260509232012 | 66 | 39 | 9.0 | 18.0 | 0.00 | 0.49 | 0.41 | 62 | 1005.4 |
| 20260509231524 | 67 | 119 | 8.0 | 18.0 | 0.00 | 0.49 | 0.41 | 61 | 1005.2 |
| 20260509231007 | 67 | 65 | 9.0 | 26.0 | 0.00 | 0.49 | 0.41 | 60 | 1005.2 |
| 20260509230506 | 67 | 44 | 11.0 | 26.0 | 0.00 | 0.49 | 0.41 | 59 | 1005.1 |
| 20260509230022 | 68 | 59 | 11.0 | 23.0 | 0.00 | 0.49 | 0.41 | 59 | 1005.0 |
| 20260509225512 | 68 | 63 | 12.0 | 23.0 | 0.00 | 0.49 | 0.41 | 58 | 1005.0 |
| 20260509225015 | 69 | 28 | 13.0 | 23.0 | 0.00 | 0.49 | 0.41 | 58 | 1005.1 |
| 20260509224530 | 69 | 61 | 12.0 | 19.0 | 0.00 | 0.49 | 0.41 | 57 | 1005.0 |
| 20260509224009 | 69 | 44 | 10.0 | 19.0 | 0.00 | 0.49 | 0.41 | 58 | 1005.0 |
| 20260509223515 | 69 | 86 | 9.0 | 23.0 | 0.00 | 0.49 | 0.41 | 60 | 1004.9 |
| 20260509223020 | 69 | 31 | 13.0 | 24.0 | 0.00 | 0.49 | 0.41 | 58 | 1005.0 |
| 20260509222502 | 69 | 5 | 12.0 | 24.0 | 0.00 | 0.49 | 0.41 | 59 | 1005.0 |
| 20260509222002 | 69 | 33 | 10.0 | 19.0 | 0.00 | 0.49 | 0.41 | 58 | 1005.0 |
| 20260509221503 | 70 | 5 | 10.0 | 21.0 | 0.00 | 0.49 | 0.41 | 58 | 1005.1 |
| 20260509221002 | 69 | 44 | 7.0 | 21.0 | 0.00 | 0.49 | 0.41 | 59 | 1005.0 |
| 20260509220505 | 69 | 60 | 8.0 | 17.0 | 0.00 | 0.49 | 0.41 | 59 | 1005.0 |
| 20260509220004 | 69 | 28 | 8.0 | 26.0 | 0.00 | 0.49 | 0.41 | 58 | 1005.1 |
| 20260509215502 | 69 | 101 | 12.0 | 26.0 | 0.00 | 0.49 | 0.41 | 57 | 1005.0 |
| 20260509215002 | 69 | 36 | 12.0 | 24.0 | 0.00 | 0.49 | 0.41 | 57 | 1005.0 |
| 20260509214504 | 69 | 37 | 8.0 | 18.0 | 0.00 | 0.49 | 0.41 | 59 | 1004.9 |
| 20260509214002 | 69 | 348 | 12.0 | 18.0 | 0.00 | 0.49 | 0.41 | 57 | 1004.9 |
| 20260509213503 | 70 | 49 | 10.0 | 22.0 | 0.00 | 0.49 | 0.41 | 57 | 1005.0 |
| 20260509213005 | 70 | 65 | 13.0 | 22.0 | 0.00 | 0.49 | 0.41 | 58 | 1005.1 |
| 20260509212501 | 70 | 89 | 11.0 | 22.0 | 0.00 | 0.49 | 0.41 | 58 | 1005.1 |
| 20260509212002 | 69 | 61 | 6.0 | 23.0 | 0.00 | 0.49 | 0.41 | 61 | 1005.4 |
| 20260509211502 | 69 | 36 | 13.0 | 23.0 | 0.00 | 0.49 | 0.41 | 59 | 1005.5 |
| 20260509211003 | 69 | 40 | 13.0 | 18.0 | 0.00 | 0.49 | 0.41 | 59 | 1005.8 |
| 20260509210503 | 69 | 37 | 11.0 | 20.0 | 0.00 | 0.49 | 0.41 | 58 | 1005.8 |
| 20260509210004 | 69 | 53 | 10.0 | 22.0 | 0.00 | 0.49 | 0.41 | 60 | 1005.9 |
| 20260509205503 | 69 | 107 | 12.0 | 22.0 | 0.00 | 0.49 | 0.41 | 59 | 1005.9 |
| 20260509205002 | 69 | 14 | 12.0 | 20.0 | 0.00 | 0.49 | 0.41 | 58 | 1005.9 |
| 20260509204504 | 69 | 22 | 13.0 | 21.0 | 0.00 | 0.49 | 0.41 | 58 | 1006.0 |
| 20260509204002 | 69 | 23 | 10.0 | 21.0 | 0.00 | 0.49 | 0.41 | 57 | 1006.0 |
| 20260509203503 | 70 | 55 | 11.0 | 19.0 | 0.00 | 0.49 | 0.41 | 59 | 1006.0 |
| 20260509203005 | 69 | 63 | 9.0 | 17.0 | 0.00 | 0.49 | 0.41 | 60 | 1006.1 |
| 20260509202503 | 69 | 72 | 6.0 | 17.0 | 0.00 | 0.49 | 0.41 | 60 | 1006.1 |
| 20260509202004 | 69 | 71 | 7.0 | 18.0 | 0.00 | 0.49 | 0.41 | 60 | 1006.1 |
| 20260509201505 | 69 | 92 | 10.0 | 25.0 | 0.00 | 0.49 | 0.41 | 61 | 1006.2 |
| 20260509201003 | 69 | 91 | 14.0 | 25.0 | 0.00 | 0.50 | 0.41 | 58 | 1006.2 |
| 20260509200501 | 69 | 111 | 9.0 | 19.0 | 0.00 | 0.50 | 0.41 | 62 | 1006.2 |
| 20260509200003 | 68 | 60 | 9.0 | 19.0 | 0.00 | 0.50 | 0.41 | 64 | 1006.4 |
| 20260509195504 | 68 | 38 | 12.0 | 18.0 | 0.00 | 0.51 | 0.41 | 66 | 1006.5 |
| 20260509195001 | 66 | 43 | 6.0 | 19.0 | 0.00 | 0.51 | 0.41 | 69 | 1006.6 |
| 20260509194502 | 66 | 71 | 11.0 | 19.0 | 0.00 | 0.51 | 0.41 | 65 | 1006.7 |
| 20260509194003 | 66 | 32 | 9.0 | 17.0 | 0.00 | 0.51 | 0.41 | 64 | 1006.7 |
| 20260509193502 | 66 | 62 | 9.0 | 16.0 | 0.00 | 0.51 | 0.41 | 63 | 1006.8 |
| 20260509193007 | 67 | 55 | 9.0 | 17.0 | 0.00 | 0.51 | 0.41 | 64 | 1006.9 |
| 20260509192502 | 67 | 54 | 11.0 | 17.0 | 0.00 | 0.51 | 0.41 | 64 | 1006.9 |
| 20260509192004 | 67 | 67 | 6.0 | 17.0 | 0.00 | 0.51 | 0.41 | 68 | 1006.9 |
| 20260509191504 | 67 | 34 | 10.0 | 22.0 | 0.00 | 0.51 | 0.41 | 65 | 1006.9 |
| 20260509191003 | 67 | 59 | 14.0 | 22.0 | 0.00 | 0.51 | 0.41 | 67 | 1007.0 |
| 20260509190503 | 66 | 32 | 8.0 | 19.0 | 0.00 | 0.51 | 0.41 | 69 | 1007.0 |
| 20260509190009 | 66 | 26 | 10.0 | 17.0 | 0.00 | 0.51 | 0.41 | 69 | 1007.1 |
| 20260509185502 | 66 | 53 | 11.0 | 22.0 | 0.00 | 0.51 | 0.41 | 68 | 1007.1 |
| 20260509185008 | 66 | 49 | 8.0 | 22.0 | 0.00 | 0.51 | 0.41 | 65 | 1007.1 |
| 20260509184507 | 67 | 103 | 10.0 | 22.0 | 0.00 | 0.51 | 0.41 | 67 | 1007.1 |
| 20260509184002 | 66 | 53 | 14.0 | 22.0 | 0.00 | 0.52 | 0.41 | 68 | 1007.2 |
| 20260509183504 | 67 | 109 | 9.0 | 20.0 | 0.00 | 0.52 | 0.41 | 64 | 1007.1 |
| 20260509183007 | 67 | 57 | 10.0 | 17.0 | 0.00 | 0.52 | 0.41 | 65 | 1007.0 |
| 20260509182504 | 67 | 54 | 9.0 | 19.0 | 0.00 | 0.52 | 0.41 | 68 | 1007.1 |
| 20260509182004 | 66 | 80 | 13.0 | 19.0 | 0.00 | 0.52 | 0.41 | 67 | 1007.1 |
| 20260509181504 | 65 | 54 | 8.0 | 18.0 | 0.00 | 0.52 | 0.41 | 71 | 1007.1 |
| 20260509181003 | 65 | 46 | 9.0 | 19.0 | 0.00 | 0.52 | 0.41 | 67 | 1007.2 |
| 20260509180507 | 65 | 67 | 8.0 | 19.0 | 0.00 | 0.52 | 0.41 | 68 | 1007.1 |
| 20260509180007 | 65 | 88 | 11.0 | 19.0 | 0.00 | 0.52 | 0.41 | 71 | 1007.2 |
| 20260509175503 | 65 | 88 | 9.0 | 22.0 | 0.00 | 0.52 | 0.41 | 69 | 1007.2 |
| 20260509175003 | 64 | 45 | 11.0 | 22.0 | 0.00 | 0.52 | 0.41 | 70 | 1007.3 |
| 20260509174507 | 64 | 79 | 11.0 | 20.0 | 0.00 | 0.54 | 0.41 | 69 | 1007.3 |
| 20260509174003 | 64 | 68 | 11.0 | 20.0 | 0.00 | 0.54 | 0.41 | 71 | 1007.2 |
| 20260509173502 | 64 | 18 | 10.0 | 18.0 | 0.00 | 0.54 | 0.41 | 70 | 1007.2 |
| 20260509173005 | 64 | 51 | 10.0 | 19.0 | 0.00 | 0.54 | 0.41 | 72 | 1007.2 |
| 20260509172505 | 63 | 91 | 10.0 | 19.0 | 0.00 | 0.54 | 0.41 | 74 | 1007.2 |
| 20260509172004 | 63 | 65 | 9.0 | 17.0 | 0.00 | 0.54 | 0.41 | 70 | 1007.3 |
| 20260509171506 | 63 | 42 | 7.0 | 16.0 | 0.00 | 0.54 | 0.41 | 73 | 1007.3 |
| 20260509171002 | 62 | 67 | 8.0 | 19.0 | 0.00 | 0.54 | 0.41 | 74 | 1007.5 |
| 20260509170507 | 62 | 78 | 12.0 | 19.0 | 0.00 | 0.54 | 0.41 | 74 | 1007.6 |
| 20260509170008 | 61 | 109 | 10.0 | 19.0 | 0.00 | 0.54 | 0.41 | 76 | 1007.7 |
| 20260509165502 | 61 | 62 | 10.0 | 20.0 | 0.00 | 0.54 | 0.41 | 72 | 1007.7 |
| 20260509165003 | 62 | 80 | 10.0 | 21.0 | 0.00 | 0.54 | 0.41 | 74 | 1007.7 |
| 20260509164509 | 61 | 65 | 11.0 | 21.0 | 0.00 | 0.54 | 0.41 | 78 | 1007.6 |
| 20260509164006 | 61 | 67 | 8.0 | 17.0 | 0.00 | 0.54 | 0.41 | 77 | 1007.6 |
| 20260509163504 | 61 | 115 | 9.0 | 17.0 | 0.00 | 0.54 | 0.41 | 78 | 1007.6 |
| 20260509163014 | 61 | 57 | 7.0 | 15.0 | 0.00 | 0.54 | 0.41 | 80 | 1007.6 |
| 20260509162505 | 60 | 73 | 6.0 | 18.0 | 0.00 | 0.54 | 0.41 | 82 | 1007.6 |
| 20260509162003 | 60 | 76 | 9.0 | 18.0 | 0.00 | 0.54 | 0.41 | 81 | 1007.7 |
| 20260509161509 | 60 | 63 | 9.0 | 21.0 | 0.00 | 0.54 | 0.41 | 82 | 1007.7 |
| 20260509161005 | 59 | 68 | 9.0 | 21.0 | 0.00 | 0.54 | 0.41 | 82 | 1007.8 |
| 20260509160503 | 59 | 58 | 11.0 | 17.0 | 0.00 | 0.54 | 0.41 | 82 | 1007.8 |
| 20260509160012 | 59 | 121 | 10.0 | 17.0 | 0.00 | 0.54 | 0.41 | 84 | 1007.7 |
| 20260509155502 | 59 | 83 | 10.0 | 16.0 | 0.00 | 0.54 | 0.41 | 84 | 1007.7 |
| 20260509155004 | 58 | 34 | 7.0 | 15.0 | 0.00 | 0.54 | 0.41 | 87 | 1007.7 |
| 20260509154516 | 58 | 88 | 8.0 | 15.0 | 0.00 | 0.54 | 0.41 | 87 | 1007.8 |